• en Belgique
  • Liste des pays
  • À 7 jours
  • Température de l'eau
  • Carte satellitaire
  • Carte météo
  • Widgets météo
  • user-avatar
    Se connecter

    Météo par heure à Setif

    Ce jour, 16 Juillet, Lundi

    Heure Température Précipitation Vent Pression Humidité
    00:00 +31°C° 0 mm 1 m/s 675 mmHg 30%
    01:00 +30°C° 0 mm 2 m/s 674 mmHg 33%
    02:00 +29°C° 0 mm 2 m/s 674 mmHg 36%
    03:00 +29°C° 0 mm 2 m/s 674 mmHg 40%
    04:00 +28°C° 0 mm 2 m/s 674 mmHg 45%
    05:00 +27°C° 0 mm 2 m/s 675 mmHg 50%
    06:00 +26°C° 0 mm 2 m/s 675 mmHg 55%
    07:00 +27°C° 0 mm 2 m/s 675 mmHg 48%
    08:00 +29°C° 0 mm 2 m/s 676 mmHg 40%
    09:00 +30°C° 0 mm 2 m/s 676 mmHg 33%
    10:00 +31°C° 0 mm 3 m/s 677 mmHg 29%
    11:00 +34°C° 0 mm 3 m/s 677 mmHg 26%
    12:00 +35°C° 0 mm 4 m/s 677 mmHg 23%
    13:00 +35°C° 0 mm 5 m/s 677 mmHg 23%
    14:00 +35°C° 0 mm 5 m/s 677 mmHg 23%
    15:00 +35°C° 0 mm 6 m/s 676 mmHg 23%
    16:00 +34°C° 0 mm 6 m/s 676 mmHg 27%
    17:00 +32°C° 0 mm 5 m/s 676 mmHg 32%
    18:00 +30°C° 0 mm 5 m/s 675 mmHg 36%
    19:00 +28°C° 0 mm 4 m/s 676 mmHg 40%
    20:00 +27°C° 0 mm 3 m/s 676 mmHg 44%
    21:00 +25°C° 0 mm 2 m/s 676 mmHg 48%
    22:00 +25°C° 0 mm 2 m/s 676 mmHg 48%
    23:00 +24°C° 0 mm 2 m/s 676 mmHg 48%

    Demain, 17 Juillet, Mardi

    Heure Température Précipitation Vent Pression Humidité
    00:00 +24°C° 0 mm 2 m/s 675 mmHg 48%
    01:00 +24°C° 0 mm 2 m/s 675 mmHg 47%
    02:00 +23°C° 0 mm 2 m/s 675 mmHg 47%
    03:00 +23°C° 0 mm 2 m/s 674 mmHg 46%
    04:00 +23°C° 0 mm 2 m/s 674 mmHg 44%
    05:00 +23°C° 0 mm 2 m/s 675 mmHg 41%
    06:00 +23°C° 0 mm 2 m/s 675 mmHg 39%
    07:00 +25°C° 0 mm 2 m/s 675 mmHg 34%
    08:00 +27°C° 0 mm 2 m/s 676 mmHg 28%
    09:00 +28°C° 0 mm 2 m/s 676 mmHg 23%
    10:00 +30°C° 0 mm 2 m/s 677 mmHg 21%
    11:00 +32°C° 0 mm 1 m/s 677 mmHg 18%
    12:00 +33°C° 0 mm 1 m/s 677 mmHg 16%
    13:00 +35°C° 0 mm 2 m/s 677 mmHg 16%
    14:00 +35°C° 0 mm 3 m/s 676 mmHg 16%
    15:00 +36°C° 0 mm 3 m/s 676 mmHg 16%
    16:00 +35°C° 0 mm 3 m/s 676 mmHg 18%
    17:00 +35°C° 0 mm 3 m/s 676 mmHg 21%
    18:00 +34°C° 0 mm 3 m/s 675 mmHg 23%
    19:00 +31°C° 0 mm 3 m/s 675 mmHg 27%
    20:00 +30°C° 0 mm 2 m/s 675 mmHg 31%
    21:00 +29°C° 0 mm 2 m/s 675 mmHg 34%
    22:00 +28°C° 0 mm 2 m/s 675 mmHg 35%
    23:00 +28°C° 0 mm 2 m/s 675 mmHg 35%

    Après-demain, 18 Juillet, Mercredi

    Heure Température Précipitation Vent Pression Humidité
    00:00 +28°C° 0 mm 2 m/s 674 mmHg 36%
    01:00 +27°C° 0 mm 2 m/s 674 mmHg 37%
    02:00 +27°C° 0 mm 1 m/s 674 mmHg 37%
    03:00 +27°C° 0 mm 1 m/s 673 mmHg 38%
    04:00 +27°C° 0 mm 2 m/s 674 mmHg 36%
    05:00 +28°C° 0 mm 2 m/s 674 mmHg 35%
    06:00 +28°C° 0 mm 2 m/s 674 mmHg 34%
    07:00 +30°C° 0 mm 2 m/s 675 mmHg 31%
    08:00 +33°C° 0 mm 3 m/s 675 mmHg 27%
    09:00 +34°C° 0 mm 3 m/s 676 mmHg 23%
    10:00 +36°C° 0 mm 4 m/s 676 mmHg 21%
    11:00 +37°C° 0 mm 5 m/s 676 mmHg 19%
    12:00 +40°C° 0 mm 5 m/s 676 mmHg 16%
    13:00 +40°C° 0 mm 5 m/s 675 mmHg 16%
    14:00 +40°C° 0 mm 5 m/s 675 mmHg 15%
    15:00 +40°C° 0 mm 5 m/s 675 mmHg 15%
    16:00 +40°C° 0 mm 4 m/s 675 mmHg 16%
    17:00 +38°C° 0 mm 3 m/s 674 mmHg 18%
    18:00 +37°C° 0 mm 3 m/s 674 mmHg 20%
    19:00 +36°C° 0 mm 2 m/s 674 mmHg 23%
    20:00 +33°C° 0 mm 1 m/s 674 mmHg 26%
    21:00 +32°C° 0 mm 1 m/s 674 mmHg 29%
    22:00 +31°C° 0 mm 1 m/s 674 mmHg 30%
    23:00 +31°C° 0 mm 1 m/s 674 mmHg 31%

    19 Juillet, Jeudi

    Heure Température Précipitation Vent Pression Humidité
    00:00 +30°C° 0 mm 1 m/s 674 mmHg 33%
    01:00 +30°C° 0 mm 1 m/s 673 mmHg 33%
    02:00 +30°C° 0 mm 1 m/s 673 mmHg 33%
    03:00 +29°C° 0 mm 1 m/s 673 mmHg 33%
    04:00 +29°C° 0 mm 1 m/s 673 mmHg 34%
    05:00 +29°C° 0 mm 1 m/s 674 mmHg 34%
    06:00 +30°C° 0 mm 1 m/s 674 mmHg 35%
    07:00 +31°C° 0 mm 1 m/s 674 mmHg 32%
    08:00 +32°C° 0 mm 2 m/s 675 mmHg 28%
    09:00 +35°C° 0 mm 2 m/s 676 mmHg 25%
    10:00 +36°C° 0 mm 2 m/s 676 mmHg 23%
    11:00 +36°C° 0 mm 2 m/s 676 mmHg 21%
    12:00 +37°C° 0 mm 2 m/s 676 mmHg 20%
    13:00 +37°C° 0 mm 2 m/s 676 mmHg 20%
    14:00 +37°C° 0 mm 3 m/s 675 mmHg 21%
    15:00 +38°C° 0 mm 3 m/s 675 mmHg 22%
    16:00 +37°C° 0 mm 3 m/s 675 mmHg 25%
    17:00 +36°C° 0 mm 3 m/s 675 mmHg 27%
    18:00 +35°C° 0 mm 4 m/s 675 mmHg 30%
    19:00 +34°C° 0 mm 3 m/s 675 mmHg 34%
    20:00 +32°C° 0 mm 2 m/s 675 mmHg 38%
    21:00 +31°C° 0 mm 1 m/s 675 mmHg 41%
    22:00 +30°C° 0 mm 2 m/s 675 mmHg 40%
    23:00 +30°C° 0 mm 2 m/s 674 mmHg 40%

    20 Juillet, Vendredi

    Heure Température Précipitation Vent Pression Humidité
    00:00 +30°C° 0 mm 2 m/s 674 mmHg 39%
    01:00 +29°C° 0 mm 2 m/s 674 mmHg 40%
    02:00 +29°C° 0 mm 2 m/s 673 mmHg 41%
    03:00 +28°C° 0 mm 2 m/s 673 mmHg 42%
    04:00 +28°C° 0 mm 1 m/s 673 mmHg 43%
    05:00 +28°C° 0 mm 1 m/s 674 mmHg 43%
    06:00 +28°C° 0 mm 1 m/s 674 mmHg 44%
    07:00 +29°C° 0 mm 1 m/s 674 mmHg 38%
    08:00 +31°C° 0 mm 1 m/s 675 mmHg 32%
    09:00 +34°C° 0 mm 2 m/s 675 mmHg 26%
    10:00 +35°C° 0,1 mm 2 m/s 676 mmHg 23%
    11:00 +37°C° 0,1 mm 3 m/s 676 mmHg 20%
    12:00 +38°C° 0,1 mm 4 m/s 676 mmHg 18%
    13:00 +38°C° 0 mm 4 m/s 676 mmHg 18%
    14:00 +39°C° 0 mm 5 m/s 675 mmHg 18%
    15:00 +40°C° 0 mm 5 m/s 675 mmHg 18%
    16:00 +37°C° 0 mm 4 m/s 675 mmHg 20%
    17:00 +36°C° 0 mm 3 m/s 675 mmHg 22%
    18:00 +35°C° 0 mm 2 m/s 674 mmHg 25%
    19:00 +34°C° 0 mm 2 m/s 675 mmHg 28%
    20:00 +32°C° 0 mm 2 m/s 675 mmHg 31%
    21:00 +31°C° 0 mm 2 m/s 675 mmHg 34%
    22:00 +30°C° 0 mm 2 m/s 675 mmHg 35%
    23:00 +30°C° 0 mm 2 m/s 674 mmHg 37%

    21 Juillet, Samedi

    Heure Température Précipitation Vent Pression Humidité
    00:00 +29°C° 0 mm 2 m/s 674 mmHg 38%
    01:00 +29°C° 0,1 mm 2 m/s 674 mmHg 39%
    02:00 +28°C° 0,1 mm 2 m/s 673 mmHg 40%
    03:00 +28°C° 0,1 mm 2 m/s 673 mmHg 42%
    04:00 +28°C° 0 mm 2 m/s 673 mmHg 41%
    05:00 +28°C° 0 mm 2 m/s 673 mmHg 40%
    06:00 +28°C° 0 mm 2 m/s 674 mmHg 39%
    07:00 +30°C° 0 mm 2 m/s 674 mmHg 35%
    08:00 +31°C° 0 mm 2 m/s 674 mmHg 32%
    09:00 +32°C° 0 mm 2 m/s 674 mmHg 28%
    10:00 +35°C° 0 mm 2 m/s 675 mmHg 24%
    11:00 +37°C° 0 mm 3 m/s 675 mmHg 20%
    12:00 +40°C° 0 mm 4 m/s 675 mmHg 15%
    13:00 +40°C° 0 mm 5 m/s 675 mmHg 16%
    14:00 +39°C° 0 mm 5 m/s 675 mmHg 18%
    15:00 +39°C° 0 mm 6 m/s 674 mmHg 19%
    16:00 +37°C° 0 mm 5 m/s 674 mmHg 21%
    17:00 +37°C° 0 mm 4 m/s 674 mmHg 23%
    18:00 +36°C° 0 mm 3 m/s 674 mmHg 25%
    19:00 +34°C° 0 mm 3 m/s 674 mmHg 29%
    20:00 +33°C° 0 mm 3 m/s 674 mmHg 33%
    21:00 +30°C° 0 mm 2 m/s 674 mmHg 38%
    22:00 +30°C° 0 mm 2 m/s 674 mmHg 39%
    23:00 +29°C° 0 mm 2 m/s 673 mmHg 41%
    Voir plus